Startseite
Über Mich
AHP4
Galerie
Sehschlangen
Tourenbuch
Bookmarks
Elektronik
Bewertung
Geschichten
[Tagesmessung] [Jahreswerte] [Information]

Messwerte vom 10.06.2022

Die letzten Messwerte von 23:58:50 Uhr:
KategorieMesswert
Temperatur [°C]15
Luftdruck [mBar]1006
Sonneneinstrahlung0
Wind [km/h]0 aus Nordost
Niederschlag [l/m²]0
rel.Luftfeucht.84.9%
CO2 [ppm]673

Diagramme
Messwerte vom 10.06.2022
Tagesaggregation
KategorieMinimumMaximumSchnittSumme
Temperatur [°C]93018.5500
Luftdruck [mBar]100210071005.5021
Sonneneinstrahlung248139.6708
Wind [km/h]12
rF [%]33.696.669.05
Niederschlag [l/m²]0
CO2 [ppm]404760534.7
Einordnung alsVegetationstag
Sommertag
Heißer Tag

Messungen an benachbarten Tagen: Zur Jahresaggregation 2022
Tabelle aller Messwerte
UhrzeitTemperatur [°C]Luftdruck [mBar]SonneWind [km/h]RichtungRegen [l/m²]rF [%]CO2 [ppm]
00:01:49 13 1003 0 0 SO 0 87.2 533
00:04:49 13 1003 0 0 SO 0 87 533
00:07:47 13 1003 0 0 SO 0 86.7 538
00:10:48 13 1003 0 0 SO 0 86.7 548
00:13:48 13 1003 0 0 SO 0 87.1 545
00:16:47 13 1003 0 0 SO 0 87.4 544
00:19:49 13 1003 0 0 SO 0 87.2 548
00:22:51 13 1002 0 0 SO 0 87.8 547
00:25:47 12 1003 0 0 SO 0 88.1 554
00:28:49 12 1003 0 0 SO 0 87.7 557
00:31:48 12 1003 0 0 SO 0 87.7 557
00:34:49 12 1002 0 0 SO 0 88.2 559
00:37:48 12 1003 0 0 SO 0 88.4 556
00:40:51 12 1003 0 0 SO 0 88.7 560
00:43:49 12 1003 0 0 SO 0 88.9 568
00:46:49 12 1003 0 0 SO 0 89.4 570
00:49:47 12 1003 0 0 SO 0 89.7 579
00:52:47 12 1003 0 0 SO 0 90.1 573
00:55:48 12 1003 0 0 SO 0 90.4 577
00:58:47 12 1003 0 0 SO 0 90.3 586
01:01:49 12 1003 0 0 SO 0 90.8 588
01:04:48 12 1003 0 0 SO 0 90.9 597
01:07:48 12 1003 0 0 SO 0 90.9 598
01:10:47 12 1003 0 0 SO 0 91.3 603
01:13:46 12 1003 0 0 SO 0 91.2 603
01:16:48 11 1003 0 0 SO 0 91.1 603
01:19:49 11 1004 0 0 SO 0 91.5 603
01:22:48 11 1003 0 0 SO 0 91.7 618
01:25:45 11 1003 0 0 SO 0 92.2 615
01:28:48 11 1004 0 0 SO 0 91.9 619
01:31:48 11 1003 0 0 SO 0 91.7 613
01:34:45 11 1003 0 0 SO 0 91.7 612
01:37:48 11 1003 0 0 SO 0 92.2 620
01:40:48 11 1004 0 0 SO 0 92.5 620
01:43:47 11 1003 0 0 SO 0 92.6 623
01:46:47 11 1004 0 0 SO 0 92.9 620
01:49:49 11 1004 0 0 SO 0 92.8 619
01:52:47 11 1004 0 0 SO 0 93.1 624
01:55:47 11 1004 0 0 SO 0 93.3 627
01:58:49 11 1004 0 0 SO 0 93.2 626
02:01:50 11 1004 0 0 SO 0 93.2 638
02:04:48 11 1004 0 0 SO 0 93.3 636
02:07:48 11 1004 0 0 SO 0 93.5 644
02:10:49 11 1004 0 0 SO 0 93.5 650
02:13:49 11 1004 0 0 SO 0 93.6 651
02:16:46 11 1004 0 0 SO 0 93.7 647
02:19:49 11 1004 0 0 SO 0 94 650
02:22:46 11 1004 0 0 SO 0 94.3 651
02:25:46 11 1005 0 0 SO 0 94.5 659
02:28:48 11 1004 0 0 SO 0 94.4 659
02:31:46 11 1004 0 0 SO 0 94.4 657
02:34:48 11 1004 0 0 SO 0 94.4 659
02:37:48 11 1004 0 0 SO 0 94.4 658
02:40:47 11 1004 0 0 SO 0 94.6 662
02:43:50 11 1004 0 0 SO 0 95.2 661
02:46:49 11 1004 0 0 SO 0 95.4 656
02:49:49 11 1004 0 0 SO 0 95.5 662
02:52:47 10 1005 0 0 SO 0 95.1 662
02:55:48 10 1005 0 0 SO 0 95.3 674
02:58:48 10 1004 0 0 SO 0 95.4 677
03:01:48 10 1004 0 0 SO 0 95.4 678
03:04:47 10 1004 0 0 SO 0 95.9 685
03:07:47 10 1004 0 0 SO 0 95.7 682
03:10:49 10 1004 0 0 SO 0 95.7 686
03:13:47 10 1005 0 0 S 0 95.9 682
03:16:46 10 1004 0 0 S 0 96 682
03:19:49 10 1005 0 0 SW 0 96.1 679
03:22:48 10 1005 0 0 SW 0 96.1 679
03:25:49 10 1005 0 0 SW 0 96.3 676
03:28:48 10 1004 0 0 SW 0 96.5 676
03:31:49 10 1005 0 0 SW 0 96.6 676
03:34:48 10 1004 0 0 SW 0 96.5 679
03:37:50 10 1005 0 0 SW 0 96.5 676
03:40:47 10 1004 0 0 SW 0 96.5 680
03:43:48 10 1004 0 0 SW 0 96.4 686
03:46:47 10 1005 0 0 SW 0 96.6 684
03:49:48 10 1005 0 0 SW 0 96.6 685
03:52:49 10 1005 0 0 SW 0 96.6 682
03:55:47 10 1005 0 0 SO 0 96.6 689
03:58:48 10 1005 0 0 SO 0 96.6 688
04:01:46 10 1005 0 0 SO 0 96.6 693
04:04:47 10 1005 0 0 SO 0 96.6 694
04:07:48 10 1005 0 0 SO 0 96.6 693
04:10:48 10 1004 0 0 SO 0 96.6 697
04:13:47 10 1005 0 0 SO 0 96.6 691
04:16:46 10 1004 0 0 SO 0 96.6 689
04:19:46 10 1005 0 0 SO 0 96.6 695
04:22:48 10 1005 3 0 W 0 96.6 693
04:25:45 10 1005 4 0 W 0 96.6 688
04:28:48 10 1005 6 0 W 0 96.6 688
04:31:47 10 1005 9 0 W 0 96.6 688
04:34:50 9 1005 13 0 W 0 96.6 685
04:37:48 9 1005 17 0 W 0 96.6 692
04:40:48 9 1005 23 0 W 0 96.6 691
04:43:46 9 1005 30 0 W 0 96.6 694
04:46:46 9 1005 37 0 W 0 96.6 696
04:49:47 9 1005 46 0 W 0 96.6 693
04:52:47 9 1006 55 0 W 0 96.6 694
04:55:48 9 1006 64 0 W 0 96.6 689
04:58:46 9 1005 73 0 W 0 96.6 697
05:01:47 9 1006 81 0 W 0 96.6 695
05:04:49 9 1005 89 0 W 0 96.6 686
05:07:46 9 1006 97 0 W 0 96.6 691
05:10:48 9 1005 104 0 W 0 96.6 697
05:13:47 9 1005 109 0 W 0 96.6 706
05:16:47 9 1006 111 0 W 0 96.6 698
05:19:47 9 1006 118 0 W 0 96.6 700
05:22:47 9 1006 125 0 W 0 96.6 698
05:25:48 9 1006 133 0 W 0 96.6 697
05:28:47 9 1005 139 0 W 0 96.6 706
05:31:49 10 1006 144 0 W 0 96.6 710
05:34:48 10 1006 149 0 W 0 96.6 712
05:37:47 10 1006 150 0 W 0 96.6 714
05:40:48 10 1005 151 0 W 0 96.6 704
05:43:46 10 1006 154 0 W 0 96.6 702
05:46:47 10 1006 157 0 W 0 96.6 702
05:49:47 10 1006 160 0 W 0 96.6 709
05:52:47 10 1005 162 0 W 0 96.6 717
05:55:46 10 1006 164 0 W 0 96.6 715
05:58:49 10 1006 166 0 W 0 96.6 718
06:01:50 10 1006 168 0 W 0 96.6 718
06:04:50 10 1006 172 0 W 0 96.6 718
06:07:50 10 1006 173 0 W 0 96.6 715
06:10:48 10 1006 177 0 W 0 96.6 720
06:13:50 10 1006 179 0 W 0 96.6 727
06:16:47 10 1006 176 0 W 0 96.6 730
06:19:51 11 1006 175 0 SO 0 96.6 720
06:22:47 11 1006 175 0 S 0 96.6 723
06:25:48 11 1006 178 0 S 0 96.6 732
06:28:48 11 1006 183 0 S 0 96.6 738
06:31:51 11 1006 190 0 NO 0 96.6 739
06:34:48 11 1006 184 0 NO 0 96.6 735
06:37:51 11 1006 183 0 SO 0 96.6 739
06:40:50 11 1006 186 0 SO 0 96.6 735
06:43:48 12 1006 190 0 NO 0 96.6 741
06:46:48 12 1006 192 0 NO 0 96.6 744
06:49:49 12 1006 186 0 NW 0 96.6 749
06:52:48 12 1006 193 0 SW 0 96.6 747
06:55:48 12 1006 198 0 S 0 96.6 750
06:58:49 12 1006 195 0 NW 0 96.6 753
07:01:51 13 1006 189 0 NW 0 96.6 753
07:04:50 13 1006 181 1 SO 0 96.6 748
07:07:50 13 1006 184 0 SO 0 96.6 752
07:10:51 13 1006 184 0 SO 0 96.6 760
07:13:49 13 1006 188 2 W 0 96.6 753
07:16:48 13 1006 142 1 SO 0 96.5 721
07:19:49 13 1006 142 0 SW 0 96.1 539
07:22:47 14 1006 142 1 S 0 95.9 436
07:25:46 14 1006 142 0 S 0 95.7 430
07:28:49 15 1006 185 0 S 0 95.2 457
07:31:47 16 1006 185 3 W 0 92.8 474
07:34:50 18 1006 184 0 W 0 89.8 460
07:37:51 19 1006 184 0 SO 0 82.7 495
07:40:35 15 1006 184 0 W 0 75.7 485
07:43:51 20 1006 184 3 W 0 72.7 479
07:46:48 21 1006 184 0 SO 0 72.9 480
07:49:47 21 1006 184 0 W 0 70.5 480
07:52:47 21 1006 184 1 S 0 69.7 477
07:55:48 21 1006 184 1 S 0 67.1 483
07:58:48 21 1006 184 1 W 0 65.2 485
08:01:52 21 1006 184 0 NO 0 66.1 489
08:04:48 22 1006 184 0 W 0 66.9 489
08:07:50 22 1006 184 5 NW 0 66 478
08:10:50 20 1006 184 3 SO 0 65.9 475
08:13:34 20 1006 184 1 SO 0 58.2 477
08:16:48 18 1006 184 0 W 0 72.9 480
08:19:49 17 1006 184 0 S 0 74.5 483
08:22:47 17 1006 184 0 S 0 76.3 475
08:25:48 17 1006 185 1 SO 0 77.2 471
08:28:50 17 1006 185 2 SO 0 78.7 469
08:31:49 16 1006 185 0 W 0 79.7 474
08:34:51 16 1006 185 3 S 0 80.3 478
08:37:49 16 1006 185 3 W 0 80.4 480
08:40:48 16 1006 185 1 NO 0 80.7 477
08:43:48 16 1006 185 0 N 0 80.8 472
08:46:49 16 1006 185 1 SO 0 80.6 471
08:49:47 16 1006 185 0 O 0 79.7 465
08:52:48 16 1006 186 1 SW 0 79.7 466
08:55:47 16 1006 186 2 S 0 79.2 468
08:58:47 17 1006 186 1 NW 0 79.2 474
09:01:47 17 1006 187 1 W 0 79.2 477
09:04:49 17 1006 188 3 SW 0 78.7 480
09:07:48 17 1006 190 2 S 0 79.2 478
09:10:47 17 1006 191 0 S 0 78.7 475
09:13:49 17 1006 192 0 W 0 78.2 480
09:16:50 17 1006 193 1 SO 0 78.2 474
09:19:50 17 1006 194 3 NW 0 78.2 477
09:22:48 17 1006 194 1 S 0 77.5 469
09:25:47 17 1006 195 2 W 0 75.1 477
09:28:48 17 1006 196 2 SW 0 74 477
09:31:47 17 1006 195 0 S 0 74.5 481
09:34:46 17 1007 196 4 S 0 74.4 489
09:37:48 17 1006 196 3 SW 0 74 481
09:40:47 18 1006 196 3 NW 0 73.6 475
09:43:47 18 1006 196 0 S 0 73.2 468
09:46:48 18 1006 196 5 SW 0 73 468
09:49:48 18 1006 196 1 SW 0 72.1 471
09:52:49 18 1006 196 1 SW 0 73.1 468
09:55:47 18 1006 196 2 W 0 71.8 474
09:58:47 18 1006 197 2 S 0 71.4 475
10:01:50 18 1006 197 1 SW 0 72.1 475
10:04:49 18 1006 197 0 S 0 73.3 471
10:07:49 18 1006 197 4 NW 0 71.2 468
10:10:51 18 1006 198 4 SO 0 68.8 468
10:13:50 18 1006 199 1 O 0 68.3 473
10:16:50 19 1006 200 0 W 0 69.5 474
10:19:48 19 1006 200 0 S 0 70 472
10:22:47 19 1006 200 1 NW 0 68.8 466
10:25:47 19 1006 200 8 W 0 67.8 472
10:28:48 19 1006 201 0 NO 0 66.9 475
10:31:49 19 1006 202 2 SW 0 66.2 471
10:34:48 19 1006 206 1 SW 0 65.9 460
10:37:49 19 1006 201 0 S 0 65 459
10:40:49 20 1006 201 2 SO 0 64.4 467
10:43:48 20 1006 203 1 NW 0 63.5 466
10:46:49 19 1006 207 1 SW 0 62.3 468
10:49:48 20 1006 205 1 O 0 62.2 466
10:52:48 20 1006 206 3 W 0 62.2 471
10:55:46 20 1006 204 5 S 0 56.4 471
10:58:48 20 1006 202 3 S 0 55.9 466
11:01:49 20 1006 203 2 SO 0 56.4 463
11:04:47 20 1006 205 1 W 0 56.5 456
11:07:47 20 1006 209 1 W 0 56.2 454
11:10:50 21 1006 210 2 SO 0 59.2 456
11:13:48 21 1006 204 2 SW 0 59.1 456
11:16:48 21 1006 209 1 W 0 58.5 457
11:19:48 21 1006 208 3 NW 0 55.1 456
11:22:49 21 1006 211 3 SW 0 52.5 459
11:25:48 21 1006 213 0 W 0 51.9 469
11:28:48 21 1006 215 3 S 0 53.2 465
11:31:50 22 1006 222 1 NW 0 54.2 459
11:34:47 22 1006 215 6 SO 0 52.9 454
11:37:47 21 1006 209 4 S 0 51.7 454
11:40:49 21 1006 208 2 NW 0 53.2 457
11:43:47 21 1006 216 4 SW 0 55.5 457
11:46:50 22 1006 218 2 SO 0 54.6 451
11:49:48 22 1006 218 0 S 0 54.5 457
11:52:50 22 1006 221 0 NW 0 54.8 456
11:55:31 21 1006 218 6 W 0 46.2 459
11:58:47 23 1006 220 4 S 0 50.6 454
12:01:51 24 1006 223 2 SW 0 50.1 447
12:04:31 21 1006 221 0 SW 0 40 448
12:07:50 26 1006 217 3 SW 0 40.4 457
12:10:52 25 1006 216 6 SW 0 41 459
12:13:47 24 1006 218 1 SO 0 45.4 463
12:16:50 25 1006 222 1 W 0 49 456
12:19:49 26 1006 220 0 SW 0 42.6 454
12:22:49 26 1006 216 4 SW 0 42.8 457
12:25:48 26 1006 218 1 SO 0 43.6 454
12:28:50 25 1006 218 2 NW 0 45.4 459
12:31:49 25 1006 219 1 SW 0 47.1 448
12:34:48 24 1006 219 0 S 0 47.3 451
12:37:48 25 1006 217 2 SW 0 47.5 447
12:40:49 24 1006 216 7 W 0 46.9 459
12:43:48 23 1006 214 1 NW 0 47.9 460
12:46:49 23 1006 219 2 O 0 50.2 454
12:49:48 23 1006 220 1 S 0 50.1 450
12:52:51 24 1006 216 0 W 0 47.5 443
12:55:47 24 1006 223 5 S 0 47.5 439
12:58:48 24 1006 219 4 S 0 49.2 440
13:01:49 25 1006 224 1 SW 0 44.1 445
13:04:49 26 1006 220 4 SW 0 43.6 443
13:07:48 25 1006 225 3 SO 0 42.2 435
13:10:47 25 1006 224 4 S 0 41.8 436
13:13:48 25 1006 227 0 NO 0 45.6 439
13:16:48 26 1006 225 1 0 45.8 442
13:19:49 27 1006 222 4 SO 0 39.5 445
13:22:50 26 1006 225 4 SO 0 38.4 442
13:25:48 26 1006 213 4 SO 0 37.8 442
13:28:45 25 1006 216 0 S 0 39.3 448
13:31:49 25 1006 221 5 NO 0 42.5 453
13:34:48 26 1006 224 3 S 0 43.2 451
13:37:49 27 1006 225 4 W 0 43 452
13:40:47 27 1006 227 1 N 0 42.9 445
13:43:48 28 1006 228 4 SO 0 42.3 445
13:46:49 28 1006 226 2 O 0 41.6 451
13:49:48 28 1006 231 2 W 0 39.7 453
13:52:48 28 1006 228 12 SW 0 38.3 445
13:55:47 28 1006 233 1 W 0 38.2 433
13:58:47 28 1006 235 5 S 0 37.6 438
14:01:49 28 1006 234 3 O 0 40.9 436
14:04:49 28 1006 235 0 SO 0 41.3 439
14:07:31 27 1006 235 3 SW 0 40 439
14:10:45 29 1006 236 5 O 0 37.1 433
14:13:47 29 1006 238 2 O 0 35.8 434
14:16:48 29 1006 239 4 S 0 34.9 430
14:19:49 29 1006 235 4 NW 0 35.9 430
14:22:49 28 1006 236 3 W 0 33.6 427
14:25:48 28 1006 238 1 W 0 34.3 430
14:28:47 28 1006 232 9 S 0 36.8 434
14:31:49 26 1006 228 3 NO 0 35 436
14:34:51 26 1006 227 2 SW 0 39.6 433
14:37:48 26 1006 234 4 W 0 39.7 436
14:40:48 26 1006 221 10 N 0 39.7 437
14:43:50 25 1006 214 1 W 0 38.8 434
14:46:46 25 1006 219 3 S 0 39.5 435
14:49:51 25 1006 223 0 NW 0 41.2 433
14:52:49 25 1006 224 2 NO 0 41.8 439
14:55:46 24 1006 231 5 S 0 40.6 436
14:58:48 24 1006 235 0 NO 0 40.2 433
15:01:49 25 1006 234 3 SW 0 41.1 433
15:04:48 25 1006 234 1 SW 0 40.9 424
15:07:47 25 1006 235 1 NO 0 41.8 430
15:10:49 26 1005 236 2 NW 0 43.7 433
15:13:47 26 1006 238 0 W 0 43.4 439
15:16:46 26 1005 236 3 S 0 39.6 438
15:19:46 26 1005 238 1 O 0 43.4 436
15:22:47 26 1006 238 2 W 0 43.5 433
15:25:48 26 1006 237 1 NW 0 44.1 433
15:28:50 26 1006 237 1 SW 0 44.2 439
15:31:47 27 1006 237 1 O 0 41.9 433
15:34:49 27 1006 236 3 W 0 40.8 430
15:37:49 27 1006 234 3 SO 0 40.1 424
15:40:47 27 1005 238 0 N 0 40.9 427
15:43:48 26 1006 239 0 O 0 41.2 424
15:46:47 27 1006 240 4 S 0 41.2 424
15:49:48 27 1006 237 0 SW 0 42 430
15:52:50 27 1005 237 0 SO 0 42 434
15:55:48 27 1006 240 0 NW 0 42.6 430
15:58:50 27 1006 236 2 SO 0 39.9 433
16:01:48 27 1006 238 5 SW 0 39.3 430
16:04:30 26 1006 242 1 W 0 40 433
16:07:49 28 1006 238 5 W 0 40.2 433
16:10:50 28 1006 239 5 S 0 37.5 433
16:13:32 26 1006 247 5 NW 0 40 424
16:16:48 27 1005 234 3 SW 0 41.7 419
16:19:47 27 1006 227 3 NW 0 43.1 421
16:22:50 26 1006 231 1 NW 0 43.6 419
16:25:49 26 1005 228 5 SO 0 44.1 425
16:28:49 26 1006 237 0 SW 0 45.1 427
16:31:49 26 1006 234 9 S 0 43.8 430
16:34:47 26 1006 230 2 N 0 43.4 430
16:37:50 26 1006 230 0 W 0 46.3 422
16:40:48 26 1006 231 3 NW 0 46.7 422
16:43:47 26 1006 233 3 W 0 47.8 424
16:46:49 26 1006 237 1 NW 0 48.3 415
16:49:49 26 1006 237 0 W 0 48.7 407
16:52:50 26 1006 234 2 S 0 48 407
16:55:48 27 1006 233 5 NO 0 46.8 404
16:58:47 26 1006 244 1 W 0 45.8 407
17:01:51 27 1005 245 3 NO 0 46 405
17:04:50 28 1006 240 4 SW 0 42.6 406
17:07:48 27 1006 241 2 W 0 42.9 407
17:10:46 27 1006 246 0 S 0 44.9 410
17:13:48 28 1006 239 2 W 0 45.6 410
17:16:48 27 1006 235 1 W 0 44.1 410
17:19:50 26 1006 206 2 SO 0 45.3 406
17:22:51 25 1006 197 2 NW 0 47.8 404
17:25:49 25 1006 198 2 NW 0 50 407
17:28:47 25 1006 201 1 O 0 50.7 407
17:31:48 25 1006 208 0 S 0 50.6 405
17:34:50 25 1006 206 0 SW 0 50.7 407
17:37:50 25 1006 202 2 NW 0 51 404
17:40:49 25 1006 198 0 NW 0 51.3 404
17:43:46 25 1006 204 0 O 0 51.4 407
17:46:47 25 1006 212 2 SW 0 51.5 407
17:49:51 26 1006 212 4 S 0 50.3 407
17:52:47 27 1006 213 0 S 0 46.9 407
17:55:52 27 1006 214 0 SO 0 46.8 405
17:58:48 26 1006 238 0 O 0 47.2 406
18:01:48 26 1006 248 3 W 0 47.3 404
18:04:52 28 1006 248 3 SW 0 44.7 404
18:07:37 26 1006 247 0 SO 0 40 405
18:10:50 30 1006 244 1 SW 0 39.7 404
18:13:47 29 1006 241 0 NO 0 39.8 406
18:16:51 28 1005 232 2 SO 0 42.9 404
18:19:50 27 1006 229 1 SO 0 44 407
18:22:51 26 1006 227 0 SO 0 45.7 407
18:25:49 26 1006 228 1 W 0 46.7 404
18:28:50 25 1006 228 1 SO 0 47.5 407
18:31:49 25 1006 235 2 NW 0 46.5 421
18:34:49 25 1006 224 2 S 0 47.6 428
18:37:51 25 1006 229 0 SO 0 48.6 439
18:40:50 25 1006 227 1 SW 0 49.4 448
18:43:48 24 1005 230 1 NW 0 51.4 446
18:46:49 24 1006 228 0 NW 0 51.7 451
18:49:48 24 1005 224 0 S 0 51.9 461
18:52:49 24 1006 224 0 SO 0 51.9 469
18:55:50 24 1006 223 2 W 0 52.4 469
18:58:48 24 1006 223 2 SW 0 52.8 475
19:01:51 24 1006 224 0 SW 0 53 470
19:04:49 24 1006 225 0 W 0 52.9 475
19:07:49 24 1006 225 1 W 0 53 475
19:10:49 24 1005 225 0 SO 0 53.5 492
19:13:51 24 1006 226 0 SW 0 54.2 499
19:16:49 24 1006 225 0 W 0 54.2 510
19:19:48 24 1006 196 0 S 0 54.3 521
19:22:50 24 1005 188 1 NW 0 55 538
19:25:51 23 1005 189 0 NW 0 55.2 539
19:28:50 23 1006 190 0 S 0 55.4 535
19:31:50 23 1006 192 0 SW 0 56 518
19:34:48 23 1006 219 2 W 0 56.2 510
19:37:47 23 1005 218 0 O 0 56.5 504
19:40:48 23 1006 215 1 SW 0 57 500
19:43:50 23 1006 213 0 W 0 57.3 493
19:46:49 23 1005 212 2 NW 0 57.2 489
19:49:50 23 1006 206 0 W 0 57.7 489
19:52:48 22 1006 201 0 SO 0 57.4 491
19:55:47 22 1006 198 0 S 0 57.7 495
19:58:51 22 1006 197 0 S 0 58.7 486
20:01:49 22 1006 196 0 W 0 59.2 489
20:04:48 22 1005 194 0 W 0 59.4 490
20:07:48 22 1006 191 0 W 0 59.2 486
20:10:48 22 1005 188 0 S 0 59.3 486
20:13:52 22 1006 184 0 SO 0 59.3 486
20:16:49 22 1005 180 0 SO 0 58.9 492
20:19:48 22 1005 176 0 S 0 59 495
20:22:47 22 1006 171 0 O 0 58.5 496
20:25:48 22 1005 167 0 O 0 58.7 486
20:28:47 22 1006 165 0 O 0 58.7 479
20:31:48 22 1006 160 0 S 0 58.6 477
20:34:48 22 1006 158 0 S 0 58.7 477
20:37:46 21 1006 156 0 S 0 59.1 480
20:40:48 21 1006 152 0 S 0 59.7 474
20:43:47 21 1006 150 0 S 0 59.8 481
20:46:47 21 1006 146 0 S 0 60.2 471
20:49:49 21 1006 145 0 S 0 60.3 472
20:52:48 21 1006 143 0 S 0 60.5 474
20:55:50 21 1006 140 0 S 0 60.4 477
20:58:48 21 1005 133 0 S 0 60.2 478
21:01:47 21 1005 129 0 S 0 60.7 474
21:04:47 21 1005 124 1 S 0 61 474
21:07:48 21 1005 124 0 S 0 61 478
21:10:47 20 1005 119 0 S 0 61.2 477
21:13:46 20 1005 113 0 S 0 61.6 475
21:16:47 20 1006 108 0 S 0 61.8 477
21:19:49 20 1005 100 0 S 0 62.3 479
21:22:49 20 1005 93 0 S 0 62.7 481
21:25:46 20 1006 83 0 S 0 62.8 478
21:28:47 20 1006 76 0 S 0 63.2 474
21:31:45 19 1006 70 0 S 0 63.3 474
21:34:46 19 1006 62 0 S 0 64 477
21:37:50 19 1006 56 0 S 0 64.1 484
21:40:47 19 1006 50 0 S 0 64.6 495
21:43:47 19 1006 46 0 S 0 64.8 495
21:46:46 19 1005 42 0 S 0 64.9 504
21:49:47 19 1006 36 0 S 0 65.1 515
21:52:45 19 1005 31 0 S 0 65.3 532
21:55:49 19 1006 25 0 O 0 65.7 539
21:58:47 18 1006 20 0 O 0 66 538
22:01:49 18 1006 16 0 O 0 66.2 545
22:04:45 18 1006 12 0 O 0 67 545
22:07:46 18 1006 9 0 O 0 67.3 553
22:10:47 18 1006 7 0 O 0 67.5 554
22:13:46 18 1006 6 0 O 0 67.9 562
22:16:50 17 1006 5 0 O 0 69.1 568
22:19:46 17 1006 4 0 O 0 69.8 576
22:22:49 17 1006 3 0 O 0 72.6 580
22:25:47 17 1006 3 0 O 0 73.1 591
22:28:47 17 1006 3 0 O 0 74 594
22:31:45 17 1006 0 0 O 0 74.3 600
22:34:51 17 1006 0 0 O 0 75.6 609
22:37:46 17 1006 0 0 O 0 75.2 621
22:40:46 17 1006 0 0 O 0 76.2 635
22:43:46 17 1006 0 0 O 0 77 647
22:46:47 16 1006 0 0 O 0 76.9 650
22:49:51 16 1006 0 0 O 0 76.1 648
22:52:47 16 1006 0 0 O 0 76 654
22:55:45 16 1006 0 0 O 0 77.1 651
22:58:46 16 1006 0 0 O 0 78.1 657
23:01:47 16 1006 0 0 O 0 78.3 659
23:04:48 16 1006 0 0 O 0 78.7 657
23:07:50 16 1005 0 0 SO 0 79.8 660
23:10:47 16 1006 0 0 SO 0 80 661
23:13:48 16 1006 0 0 SO 0 79.9 671
23:16:47 16 1006 0 0 SO 0 80 680
23:19:49 16 1006 0 0 SO 0 80.6 679
23:22:49 16 1006 0 0 SO 0 80.5 644
23:25:48 16 1005 0 0 SO 0 80.7 615
23:28:47 16 1006 0 0 NO 0 82.2 623
23:31:50 16 1006 0 0 NO 0 82 665
23:34:47 16 1006 0 0 NO 0 82.5 685
23:37:48 15 1006 0 0 NO 0 82.6 689
23:40:46 15 1006 0 0 NO 0 83 682
23:43:47 15 1005 0 0 NO 0 83.2 682
23:46:48 15 1006 0 0 NO 0 83.4 680
23:49:48 15 1006 0 0 NO 0 84.1 677
23:52:47 15 1006 0 0 NO 0 84.1 677
23:55:48 15 1006 0 0 NO 0 84.2 676
23:58:50 15 1006 0 0 NO 0 84.9 673

Letzte Änderung : 22-Jul-2022
Copyright Jens Köhler, Wolfsburg, Obere Dorfstraße 10d